This is the latest recevied weather packets stored in our database for station/object SQ5OUZ-1. If no packets are shown the sender has not sent any weather packets the latest 10 day(s).
| Time | Temp. | Humidity | Pressure | Rain* | Wind** | Luminosity | Snow |
|---|---|---|---|---|---|---|---|
| 1777176588 | 5° C | 62% | 1012.8 hPa | - | - | - | - |
| 1777175685 | 5° C | 61% | 1012.4 hPa | - | - | - | - |
| 1777174782 | 5° C | 59% | 1012 hPa | - | - | - | - |
| 1777173878 | 5.56° C | 62% | 1011.5 hPa | - | - | - | - |
| 1777172975 | 5.56° C | 67% | 1010.8 hPa | - | - | - | - |
| 1777172072 | 5.56° C | 68% | 1010.2 hPa | - | - | - | - |
| 1777171169 | 7.22° C | 58% | 1009.3 hPa | - | - | - | - |
| 1777170265 | 7.22° C | 58% | 1008.8 hPa | - | - | - | - |
| 1777169362 | 7.22° C | 59% | 1008.6 hPa | - | - | - | - |
| 1777168459 | 6.67° C | 59% | 1008.2 hPa | - | - | - | - |
| 1777167556 | 6.67° C | 64% | 1008 hPa | - | - | - | - |
| 1777166652 | 7.22° C | 66% | 1007.8 hPa | - | - | - | - |
| 1777165749 | 7.22° C | 75% | 1007.4 hPa | - | - | - | - |
| 1777164846 | 6.67° C | 77% | 1007.5 hPa | - | - | - | - |
| 1777163943 | 6.67° C | 76% | 1007.5 hPa | - | - | - | - |
| 1777163039 | 7.78° C | 66% | 1007.4 hPa | - | - | - | - |
| 1777162136 | 8.89° C | 65% | 1007.1 hPa | - | - | - | - |
| 1777161233 | 10.56° C | 56% | 1006.7 hPa | - | - | - | - |
| 1777160330 | 12.78° C | 47% | 1005.8 hPa | - | - | - | - |
| 1777159426 | 12.78° C | 46% | 1005.5 hPa | - | - | - | - |
| 1777158523 | 12.78° C | 45% | 1005.3 hPa | - | - | - | - |
| 1777157620 | 12.78° C | 44% | 1005.3 hPa | - | - | - | - |
| 1777156717 | 18.33° C | 45% | 1005.6 hPa | - | - | - | - |
| 1777155813 | 12.22° C | 45% | 1005.7 hPa | - | - | - | - |
| 1777154910 | 12.22° C | 44% | 1005.9 hPa | - | - | - | - |
* Rain since midnight (hover to see other rain measurements)
** Current wind speed in m/s (hover to see current wind gust speed)